Date String (YYYY-MM-DD hh:mm:ss) UTC,Instrument flags,absolute air pressure of the measurement (hPa),sample flow rate (lpm),inlet stack bypass flow (lpm),air temperature of the measurement (°C),ambient temperature measured by the external sensor (°C),aerosol sample conditioner tube jacket temperature (°C),OPC LED temperature (°C),internal box temperature (°C),relative humidity of the measurement (%),span deviation,mass concentration of particles derived from Lorenz-Mie calculation of OPC scattering (μg/m³),mass concentration of particles derived from Lorenz-Mie calculation of OPC scattering (μg/m³),mass concentration of particles derived from Lorenz-Mie calculation of OPC scattering (μg/m³)
DateTimeUTC,F1_M11,P_M11,Q1_M11,Q2_M11,T1_M11,T2_M11,T3_M11,T4_M11,T5_M11,U1_M11,ZSPAN_M11,X0_M11,X2_M11,X1_M11
2023-07-01 04:00:00,SystemResetWarning,0834.9,5.01,000.00,029.7,025.4,000.0,038.1,031.1,27.1,0000.0,0005.42,0003.57,0003.19
2023-07-01 04:01:00,SystemResetWarning,0834.8,5.00,000.00,029.6,025.0,000.0,038.0,030.8,27.2,0000.0,0005.46,0003.58,0003.19
2023-07-01 04:02:00,SystemResetWarning,0834.9,5.01,000.00,029.5,025.3,000.0,038.0,030.5,27.3,0000.0,0005.69,0003.59,0003.19
2023-07-01 04:03:00,SystemResetWarning,0834.9,5.01,000.00,029.4,025.7,000.0,038.0,030.6,27.4,0000.0,0005.92,0003.62,0003.18
2023-07-01 04:04:00,SystemResetWarning,0835.0,4.98,000.00,029.4,026.2,000.0,038.0,030.6,27.4,0000.0,0006.11,0003.66,0003.18
2023-07-01 04:05:00,SystemResetWarning,0835.0,4.99,000.00,029.3,026.5,000.0,038.0,030.7,27.3,0000.0,0006.04,0003.64,0003.18
2023-07-01 04:06:00,SystemResetWarning,0835.0,5.01,000.00,029.3,026.8,000.0,038.0,030.7,27.3,0000.0,0006.01,0003.63,0003.18
2023-07-01 04:07:00,SystemResetWarning,0835.0,5.01,000.00,029.3,027.1,000.0,038.0,030.8,27.2,0000.0,0005.94,0003.64,0003.18
2023-07-01 04:08:00,SystemResetWarning,0835.1,4.99,000.00,029.3,027.3,000.0,038.0,030.8,27.0,0000.0,0006.14,0003.66,0003.19
2023-07-01 04:09:00,SystemResetWarning,0835.1,4.99,000.00,029.3,027.5,000.0,038.0,030.8,27.1,0000.0,0006.26,0003.64,0003.18
2023-07-01 04:10:00,SystemResetWarning,0835.1,5.00,000.00,029.4,027.6,000.0,038.0,030.9,26.9,0000.0,0006.50,0003.67,0003.18
2023-07-01 04:11:00,SystemResetWarning,0835.1,5.00,000.00,029.4,027.8,000.0,038.0,030.9,26.8,0000.0,0006.63,0003.69,0003.19
2023-07-01 04:12:00,SystemResetWarning,0835.1,5.00,000.00,029.4,027.9,000.0,038.0,030.9,26.8,0000.0,0006.57,0003.68,0003.19
2023-07-01 04:13:00,SystemResetWarning,0835.2,5.00,000.00,029.4,027.9,000.0,038.0,030.9,26.7,0000.0,0006.60,0003.66,0003.19
2023-07-01 04:14:00,SystemResetWarning,0835.1,5.00,000.00,029.4,028.0,000.0,038.0,031.0,26.7,0000.0,0006.38,0003.63,0003.19
2023-07-01 04:15:00,SystemResetWarning,0835.2,5.00,000.00,029.5,028.1,000.0,038.0,031.0,26.6,0000.0,0006.12,0003.58,0003.18
2023-07-01 04:16:00,SystemResetWarning,0835.1,5.00,000.00,029.5,028.1,000.0,038.0,031.0,26.3,0000.0,0005.85,0003.55,0003.17
2023-07-01 04:17:00,SystemResetWarning,0835.1,5.00,000.00,029.5,028.2,000.0,038.0,031.1,26.3,0000.0,0005.77,0003.54,0003.17
2023-07-01 04:18:00,SystemResetWarning,0835.1,5.00,000.00,029.5,028.2,000.0,038.0,031.1,26.3,0000.0,0005.95,0003.54,0003.17
2023-07-01 04:19:00,SystemResetWarning,0835.1,4.99,000.00,029.5,028.2,000.0,038.0,031.1,26.2,0000.0,0005.64,0003.48,0003.16
2023-07-01 04:20:00,SystemResetWarning,0835.1,4.99,000.00,029.5,028.3,000.0,038.1,031.1,25.9,0000.0,0005.67,0003.48,0003.17
2023-07-01 04:21:00,SystemResetWarning,0835.1,5.00,000.00,029.6,028.3,000.0,038.1,031.1,25.8,0000.0,0005.70,0003.48,0003.17
2023-07-01 04:22:00,SystemResetWarning,0835.1,5.01,000.00,029.6,028.3,000.0,038.1,031.1,25.7,0000.0,0005.57,0003.47,0003.16
2023-07-01 04:23:00,SystemResetWarning,0835.2,5.01,000.00,029.6,028.3,000.0,038.1,031.1,25.6,0000.0,0005.41,0003.43,0003.16
2023-07-01 04:24:00,SystemResetWarning,0835.2,5.00,000.00,029.6,028.4,000.0,038.1,031.2,25.5,0000.0,0005.29,0003.43,0003.14
2023-07-01 04:25:00,SystemResetWarning,0835.2,4.99,000.00,029.6,028.4,000.0,038.1,031.2,25.6,0000.0,0006.30,0003.43,0003.13
2023-07-01 04:26:00,SystemResetWarning,0835.2,5.00,000.00,029.6,028.4,000.0,038.1,031.2,25.4,0000.0,0006.48,0003.44,0003.13
2023-07-01 04:27:00,SystemResetWarning,0835.2,5.00,000.00,029.7,028.4,000.0,038.1,031.2,25.5,0000.0,0006.50,0003.43,0003.13
2023-07-01 04:28:00,SystemResetWarning,0835.2,5.00,000.00,029.7,028.4,000.0,038.2,031.2,25.5,0000.0,0006.52,0003.43,0003.13
2023-07-01 04:29:00,SystemResetWarning,0835.2,5.01,000.00,029.7,028.4,000.0,038.2,031.2,25.5,0000.0,0006.33,0003.41,0003.12
2023-07-01 04:30:00,SystemResetWarning,0835.2,5.00,000.00,029.7,028.5,000.0,038.2,031.2,25.3,0000.0,0006.31,0003.42,0003.11
2023-07-01 04:31:00,SystemResetWarning,0835.3,5.00,000.00,029.7,028.5,000.0,038.2,031.3,25.2,0000.0,0006.71,0003.41,0003.11
2023-07-01 04:32:00,SystemResetWarning,0835.2,4.99,000.00,029.7,028.5,000.0,038.2,031.3,25.1,0000.0,0007.40,0003.39,0003.10
2023-07-01 04:33:00,SystemResetWarning,0835.3,5.00,000.00,029.8,028.5,000.0,038.2,031.3,24.9,0000.0,0007.33,0003.36,0003.10
2023-07-01 04:34:00,SystemResetWarning,0835.3,4.99,000.00,029.8,028.5,000.0,038.3,031.3,24.8,0000.0,0007.34,0003.36,0003.10
2023-07-01 04:35:00,SystemResetWarning,0835.3,5.00,000.00,029.8,028.6,000.0,038.3,031.3,24.8,0000.0,0007.24,0003.34,0003.08
2023-07-01 04:36:00,SystemResetWarning,0835.3,5.00,000.00,029.8,028.6,000.0,038.3,031.3,24.7,0000.0,0006.56,0003.37,0003.10
2023-07-01 04:37:00,SystemResetWarning,0835.2,5.01,000.00,029.8,028.6,000.0,038.3,031.4,24.6,0000.0,0006.35,0003.37,0003.10
2023-07-01 04:38:00,SystemResetWarning,0835.2,5.01,000.00,029.8,028.6,000.0,038.3,031.4,24.5,0000.0,0006.50,0003.39,0003.10
2023-07-01 04:39:00,SystemResetWarning,0835.2,4.99,000.00,029.9,028.6,000.0,038.3,031.4,24.5,0000.0,0006.53,0003.40,0003.10
2023-07-01 04:40:00,SystemResetWarning,0835.1,4.99,000.00,029.9,028.6,000.0,038.4,031.4,24.3,0000.0,0006.61,0003.41,0003.10
2023-07-01 04:41:00,SystemResetWarning,0835.2,5.00,000.00,029.9,028.6,000.0,038.4,031.4,24.3,0000.0,0006.61,0003.41,0003.10
2023-07-01 04:42:00,SystemResetWarning,0835.1,5.01,000.00,029.9,028.6,000.0,038.4,031.4,24.2,0000.0,0006.07,0003.43,0003.10
2023-07-01 04:43:00,SystemResetWarning,0835.1,5.01,000.00,029.9,028.7,000.0,038.4,031.4,24.4,0000.0,0005.14,0003.43,0003.10
2023-07-01 04:44:00,SystemResetWarning,0835.1,5.00,000.00,029.9,028.7,000.0,038.4,031.4,24.6,0000.0,0005.14,0003.42,0003.09
2023-07-01 04:45:00,SystemResetWarning,0835.1,4.99,000.00,029.9,028.7,000.0,038.4,031.5,24.6,0000.0,0005.38,0003.43,0003.09
2023-07-01 04:46:00,SystemResetWarning,0835.2,5.00,000.00,029.9,028.7,000.0,038.4,031.5,24.4,0000.0,0005.45,0003.44,0003.09
2023-07-01 04:47:00,SystemResetWarning,0835.1,5.00,000.00,029.9,028.7,000.0,038.4,031.5,24.4,0000.0,0005.31,0003.39,0003.09
2023-07-01 04:48:00,SystemResetWarning,0835.1,5.00,000.00,029.9,027.2,000.0,038.4,031.4,24.3,0000.0,0005.14,0003.36,0003.08
2023-07-01 04:49:00,SystemResetWarning,0835.1,5.00,000.00,029.9,025.5,000.0,038.2,031.1,24.2,0000.0,0004.90,0003.33,0003.07
2023-07-01 04:50:00,SystemResetWarning,0835.1,5.00,000.00,029.7,025.0,000.0,038.2,030.8,24.4,0000.0,0004.92,0003.32,0003.06
2023-07-01 04:51:00,SystemResetWarning,0835.0,5.02,000.00,029.6,025.3,000.0,038.2,030.6,24.6,0000.0,0004.94,0003.33,0003.04
2023-07-01 04:52:00,SystemResetWarning,0835.0,4.99,000.00,029.5,025.7,000.0,038.2,030.6,24.6,0000.0,0004.99,0003.34,0003.02
2023-07-01 04:53:00,SystemResetWarning,0835.0,5.01,000.00,029.5,026.2,000.0,038.1,030.6,24.5,0000.0,0005.01,0003.35,0003.02
2023-07-01 04:54:00,SystemResetWarning,0835.0,4.99,000.00,029.4,026.5,000.0,038.1,030.7,24.5,0000.0,0005.06,0003.35,0003.00
2023-07-01 04:55:00,SystemResetWarning,0835.0,4.99,000.00,029.4,026.8,000.0,038.1,030.7,24.4,0000.0,0005.21,0003.38,0003.00
2023-07-01 04:56:00,SystemResetWarning,0835.0,5.00,000.00,029.4,027.1,000.0,038.1,030.8,24.4,0000.0,0005.62,0003.40,0002.98
2023-07-01 04:57:00,SystemResetWarning,0835.0,5.00,000.00,029.4,027.3,000.0,038.1,030.8,24.4,0000.0,0005.77,0003.38,0002.98
2023-07-01 04:58:00,SystemResetWarning,0835.0,5.00,000.00,029.4,027.5,000.0,038.1,030.8,24.4,0000.0,0005.79,0003.39,0002.98
2023-07-01 04:59:00,SystemResetWarning,0835.0,5.01,000.00,029.4,027.7,000.0,038.1,030.9,24.3,0000.0,0005.80,0003.39,0002.98
